Погода в Маратоне

США     24°42′42″N   81°05′26″W
темп.,
°C
ветер,
м/с
пор.,
м/с
влажн.,
%
обл.,
%
осадки,
мм/ч
давл.,
гПа
погр.,
м
17 октября, вс
вс1723:00+28сз44660 0.3 1015709
02:00+28с557034 1.5 1013648
05:00+28ссв33665 0.8 1013638
08:00+27с33660 0.8 1014543
11:00+27с33650 0.0 1015490
14:00+27с1262100 0.0 1014479
17:00+28з22627 0.0 1013451
20:00+28ссз346593 0.0 1014702
18 октября, пн
пн1823:00+28в55694 0.4 1015832
02:00+27ссв76765 0.8 1015745
05:00+27св997874 0.1 1014935
08:00+27св11117594 0.3 10151088
11:00+27св11117295 0.2 10161187
14:00+27всв10107021 0.3 10151119
17:00+27всв101070100 0.0 1014999
20:00+27всв1096935 0.0 10161134
19 октября, вт
вт1923:00+27всв997079 0.1 10171122
02:00+27всв986998 0.1 1016953
05:00+27всв88668 0.0 10161127
08:00+27всв8863100 0.0 10171411
11:00+27всв986714 0.0 10181033
14:00+27всв109715 0.0 10171015
17:00+27всв1097027 0.0 10161145
20:00+27всв10106968 0.0 10181240
20 октября, ср
ср2023:00+27всв10107367 0.1 1018948
02:00+27всв997667 0.3 1018948
05:00+27всв997690 0.4 10171079
08:00+27всв10107680 0.8 10181154
11:00+28в10107299 0.3 10201154
14:00+28всв10107199 0.3 10181220
17:00+27всв10107294 0.2 10171156
20:00+27всв10107196 0.3 10181103
21 октября, чт
чт2123:00+27всв997197 0.0 1019999
02:00+28в997298 0.1 10181156
05:00+27в8873100 0.1 10171092
08:00+28в887442 0.4 10181019
11:00+28в8873100 0.7 10191067
14:00+27в7874100 1.9 1017956
17:00+28в7872100 0.2 10161014
20:00+28в8872100 0.2 1017852